Weather History for Brookings, SD

Change the Weather History Date:

Saturday, October 15, 2011

  Actual Average Record
Temperature  
Mean Temperature 48 °F -  
Max Temperature 60 °F 56 °F 68 °F (1996)
Min Temperature 37 °F 34 °F 15 °F (2003)
Degree Days  
Heating Degree Days 16    
Moisture  
Dew Point 34 °F    
Average Humidity 63    
Maximum Humidity 93    
Minimum Humidity 27    
Precipitation  
Precipitation 0.00 in - - ()
Sea Level Pressure  
Sea Level Pressure 29.93 in    
Wind  
Wind Speed 6 mph (West)    
Max Wind Speed 10 mph    
Max Gust Speed -    
Visibility 10 miles    
Events      
Averages and records for this station are not official NWS values.
T = Trace of Precipitation, MM = Missing Value Source: NWS Daily Summary

Daily Weather History Graph

Daily Weather History Graph

Search for Another Location

Airport:

Trip Planner

Search our weather history database for the weather conditions in past years. The results will help you decide how hot, cold, wet, or windy it might be!

Date:

Astronomy

Oct. 15, 2011 Rise Set
Actual Time 7:41 AM CDT 6:43 PM CDT
Civil Twilight 7:12 AM CDT 7:12 PM CDT
Nautical Twilight 6:39 AM CDT 7:46 PM CDT
Astronomical Twilight 6:05 AM CDT 8:19 PM CDT
Moon 8:31 PM CDT (10/15) 11:16 AM CDT (10/15)
Length of Visible Light 12h 00m
Length of Day
11h 01m
Waning Gibbous, 89% of the Moon is Illuminated
Oct 15
Waning Gibbous
Oct 19
Last Quarter
Oct 26
New
Nov 2
First Quarter
Nov 10
Full

Hourly Weather History & Observations

Time (CDT) Temp. Windchill Dew Point Humidity Pressure Visibility Wind Dir Wind Speed Gust Speed Precip Events Conditions
12:15 AM 41.0 °F 36.4 °F 35.6 °F 81% 29.97 in 10.0 mi West 6.9 mph - N/A   Clear
12:55 AM 39.2 °F 34.2 °F 35.6 °F 87% 29.97 in 10.0 mi West 6.9 mph - N/A   Clear
1:15 AM 39.2 °F 35.9 °F 35.6 °F 87% 29.97 in 10.0 mi West 4.6 mph - N/A   Clear
1:35 AM 39.2 °F 35.9 °F 35.6 °F 87% 29.97 in 10.0 mi West 4.6 mph - N/A   Clear
1:55 AM 37.4 °F 34.9 °F 33.8 °F 87% 29.97 in 10.0 mi West 3.5 mph - N/A   Clear
2:15 AM 39.2 °F 33.6 °F 35.6 °F 87% 29.97 in 10.0 mi WSW 8.1 mph - N/A   Clear
2:35 AM 37.4 °F 30.8 °F 33.8 °F 87% 29.98 in 10.0 mi WSW 9.2 mph - N/A   Clear
2:55 AM 37.4 °F 31.4 °F 33.8 °F 87% 29.98 in 10.0 mi WSW 8.1 mph - N/A   Clear
3:15 AM 37.4 °F 31.4 °F 33.8 °F 87% 29.98 in 10.0 mi West 8.1 mph - N/A   Clear
3:35 AM 37.4 °F 31.4 °F 33.8 °F 87% 29.98 in 10.0 mi WSW 8.1 mph - N/A   Clear
3:55 AM 37.4 °F 30.8 °F 33.8 °F 87% 29.98 in 10.0 mi WSW 9.2 mph - N/A   Clear
4:15 AM 37.4 °F 32.1 °F 35.6 °F 93% 29.98 in 10.0 mi West 6.9 mph - N/A   Clear
4:35 AM 39.2 °F 33.0 °F 35.6 °F 87% 29.98 in 10.0 mi WSW 9.2 mph - N/A   Clear
4:55 AM 37.4 °F 32.1 °F 33.8 °F 87% 29.99 in 10.0 mi WSW 6.9 mph - N/A   Clear
5:15 AM 37.4 °F 32.8 °F 35.6 °F 93% 29.99 in 10.0 mi West 5.8 mph - N/A   Clear
5:35 AM 37.4 °F 32.8 °F 35.6 °F 93% 29.99 in 10.0 mi West 5.8 mph - N/A   Clear
5:55 AM 39.2 °F 34.2 °F 33.8 °F 81% 29.99 in 10.0 mi West 6.9 mph - N/A   Clear
6:15 AM 37.4 °F 32.1 °F 33.8 °F 87% 29.99 in 10.0 mi West 6.9 mph - N/A   Clear
6:35 AM 37.4 °F 32.1 °F 33.8 °F 87% 29.98 in 10.0 mi WSW 6.9 mph - N/A   Clear
6:55 AM 37.4 °F 32.1 °F 33.8 °F 87% 29.98 in 10.0 mi WSW 6.9 mph - N/A   Clear
7:15 AM 37.4 °F 30.8 °F 33.8 °F 87% 29.99 in 10.0 mi WSW 9.2 mph - N/A   Clear
7:35 AM 37.4 °F 32.1 °F 33.8 °F 87% 29.98 in 10.0 mi West 6.9 mph - N/A   Clear
8:15 AM 37.4 °F 31.4 °F 33.8 °F 87% 29.99 in 10.0 mi WSW 8.1 mph - N/A   Clear
8:35 AM 39.2 °F 35.0 °F 35.6 °F 87% 30.00 in 10.0 mi WSW 5.8 mph - N/A   Clear
8:55 AM 39.2 °F 35.9 °F 35.6 °F 87% 29.99 in 10.0 mi WSW 4.6 mph - N/A   Partly Cloudy
9:35 AM 42.8 °F 41.1 °F 37.4 °F 81% 29.99 in 10.0 mi West 3.5 mph - N/A   Partly Cloudy
9:55 AM 44.6 °F 42.2 °F 39.2 °F 81% 30.00 in 10.0 mi West 4.6 mph - N/A   Mostly Cloudy
10:15 AM 46.4 °F 45.2 °F 39.2 °F 76% 29.99 in 10.0 mi West 3.5 mph - N/A   Overcast
10:35 AM 48.2 °F - 39.2 °F 71% 29.98 in 10.0 mi Calm Calm - N/A   Scattered Clouds
10:55 AM 51.8 °F - 39.2 °F 62% 29.98 in 10.0 mi West 3.5 mph - N/A   Partly Cloudy
11:15 AM 51.8 °F - 37.4 °F 58% 29.98 in 10.0 mi WSW 5.8 mph - N/A   Partly Cloudy
11:35 AM 53.6 °F - 37.4 °F 54% 29.97 in 10.0 mi WSW 4.6 mph - N/A   Scattered Clouds
11:55 AM 55.4 °F - 35.6 °F 47% 29.96 in 10.0 mi WSW 6.9 mph - N/A   Partly Cloudy
12:35 PM 55.4 °F - 33.8 °F 44% 29.95 in 10.0 mi West 5.8 mph - N/A   Clear
12:55 PM 57.2 °F - 33.8 °F 41% 29.93 in 10.0 mi West 6.9 mph - N/A   Partly Cloudy
1:15 PM 57.2 °F - 33.8 °F 41% 29.92 in 10.0 mi West 4.6 mph - N/A   Partly Cloudy
1:35 PM 57.2 °F - 33.8 °F 41% 29.91 in 10.0 mi West 4.6 mph - N/A   Clear
1:55 PM 57.2 °F - 32.0 °F 38% 29.90 in 10.0 mi West 4.6 mph - N/A   Partly Cloudy
2:15 PM 57.2 °F - 30.2 °F 36% 29.89 in 10.0 mi WNW 5.8 mph - N/A   Partly Cloudy
2:35 PM 59.0 °F - 30.2 °F 34% 29.88 in 10.0 mi South 3.5 mph - N/A   Partly Cloudy
2:55 PM 60.8 °F - 30.2 °F 31% 29.87 in 10.0 mi WNW 5.8 mph - N/A   Scattered Clouds
3:15 PM 60.8 °F - 28.4 °F 29% 29.86 in 10.0 mi SSW 5.8 mph - N/A   Partly Cloudy
3:35 PM 59.0 °F - 28.4 °F 31% 29.86 in 10.0 mi WSW 4.6 mph - N/A   Clear
3:55 PM 60.8 °F - 26.6 °F 27% 29.87 in 10.0 mi SW 3.5 mph - N/A   Scattered Clouds
4:15 PM 59.0 °F - 28.4 °F 31% 29.87 in 10.0 mi NW 5.8 mph - N/A   Scattered Clouds
4:35 PM 59.0 °F - 28.4 °F 31% 29.87 in 10.0 mi NNW 5.8 mph - N/A   Scattered Clouds
5:15 PM 57.2 °F - 28.4 °F 33% 29.86 in 10.0 mi NNW 5.8 mph - N/A   Partly Cloudy
5:35 PM 55.4 °F - 28.4 °F 36% 29.87 in 10.0 mi North 9.2 mph - N/A   Scattered Clouds
5:55 PM 55.4 °F - 30.2 °F 38% 29.87 in 10.0 mi North 6.9 mph - N/A   Mostly Cloudy
6:15 PM 55.4 °F - 30.2 °F 38% 29.85 in 10.0 mi NNE 5.8 mph - N/A   Mostly Cloudy
6:35 PM 55.4 °F - 30.2 °F 38% 29.87 in 10.0 mi North 4.6 mph - N/A   Mostly Cloudy
6:55 PM 55.4 °F - 30.2 °F 38% 29.85 in 8.0 mi ENE 5.8 mph - N/A   Mostly Cloudy
7:15 PM 55.4 °F - 30.2 °F 38% 29.85 in 10.0 mi NNE 3.5 mph - N/A   Mostly Cloudy
7:35 PM 53.6 °F - 30.2 °F 41% 29.85 in 10.0 mi ENE 5.8 mph - N/A   Mostly Cloudy
7:55 PM 53.6 °F - 30.2 °F 41% 29.85 in 10.0 mi NNE 4.6 mph - N/A   Mostly Cloudy
8:15 PM 51.8 °F - 33.8 °F 50% 29.85 in 10.0 mi NNE 9.2 mph - N/A   Overcast
8:35 PM 50.0 °F - 35.6 °F 58% 29.86 in 10.0 mi NNE 10.4 mph - N/A   Overcast
8:55 PM 48.2 °F - 35.6 °F 62% 29.87 in 10.0 mi NNE 9.2 mph - N/A   Overcast
9:15 PM 48.2 °F - 35.6 °F 62% 29.89 in 10.0 mi NNE 9.2 mph - N/A   Overcast
9:35 PM 48.2 °F - 35.6 °F 62% 29.88 in 10.0 mi NE 5.8 mph - N/A   Overcast
9:55 PM 48.2 °F - 37.4 °F 66% 29.89 in 10.0 mi NNE 6.9 mph - N/A   Overcast
10:15 PM 48.2 °F - 37.4 °F 66% 29.87 in 10.0 mi NE 9.2 mph - N/A   Overcast
10:35 PM 48.2 °F - 37.4 °F 66% 29.89 in 10.0 mi NNE 6.9 mph - N/A   Overcast
10:55 PM 46.4 °F 43.5 °F 37.4 °F 71% 29.90 in 10.0 mi North 5.8 mph - N/A   Mostly Cloudy
11:15 PM 46.4 °F 44.3 °F 37.4 °F 71% 29.91 in 10.0 mi North 4.6 mph - N/A   Mostly Cloudy
11:35 PM 46.4 °F 43.5 °F 37.4 °F 71% 29.90 in 10.0 mi NNE 5.8 mph - N/A   Overcast
11:55 PM 46.4 °F 42.9 °F 37.4 °F 71% 29.92 in 10.0 mi NNW 6.9 mph - N/A   Mostly Cloudy